Location: Striano
(40.8167°N, 14.5667°E)
Time: 00:47:48
(UTC+00:00)

Daily predictions for brighter satellites

Satellite Brightness Start Highest point End
(mag) Time Altitude Azimuth Time Altitude Azimuth Time Altitude Azimuth
Cosmos 1943 Rocket 4.5 02:25:02 19° ENE 02:25:02 19° ENE 02:27:01 10° NE
CENTAUR R/B 4.1 02:28:55 29° ENE 02:28:55 29° ENE 02:32:26 10° NE
Cosmos 2344 3.8 02:53:31 57° NNE 02:53:31 57° NNE 02:59:23 10° NE
USA 238 DEB 3.6 03:12:40 74° E 03:12:40 74° E 03:19:03 10° NE
USA 238 3.6 03:12:44 74° E 03:12:44 74° E 03:19:09 10° NE
BREEZE-M DEB (TANK) 3.8 03:15:56 49° NE 03:15:56 49° NE 03:24:43 10° ESE
Cosmos 1816 Rocket 4.4 03:17:04 10° S 03:23:15 82° E 03:29:33 10° N
USA 215 4.2 03:18:03 10° E 03:23:57 38° NNE 03:25:43 32° N
Cosmos 2034 Rocket 3.9 03:24:11 83° NE 03:24:20 85° E 03:30:38 10° S
Cosmos 2369 Rocket 3.0 03:31:06 10° S 03:36:26 48° ESE 03:41:48 10° NE
Cosmos 1782 3.9 03:40:16 42° E 03:40:16 42° E 03:43:37 10° SSE
COSMO-SKYMED 1 3.9 03:41:48 10° SE 03:45:48 37° ENE 03:48:36 17° NNE
Cosmos 1634 Rocket 4.5 03:40:27 10° N 03:46:40 59° E 03:52:48 10° SSE
MOS 1-B Rocket 4.2 03:42:24 10° SSE 03:48:51 71° ENE 03:54:14 12° N
Cosmos 1867 3.4 03:50:14 72° NW 03:50:47 84° WSW 03:56:14 10° SSE
Tsikada Rocket 3.8 03:44:38 10° S 03:50:49 79° W 03:57:07 10° N
Cosmos 2208 Rocket 3.9 03:52:17 56° NNW 03:53:29 87° WSW 03:58:51 10° SSE
H-2A R/B 3.2 03:51:03 10° NNE 03:54:42 56° E 03:58:23 10° S
Cosmos 1656 Rocket 4.3 03:55:17 10° S 04:00:31 54° ESE 04:05:48 10° NNE
Cosmos 1943 Rocket 2.6 04:06:38 40° NW 04:06:38 40° NW 04:11:14 10° N
CZ-2C R/B 2.9 04:01:22 10° SSE 04:06:50 69° ENE 04:12:13 10° N
SL-19 R/B 4.1 04:03:27 10° SSE 04:09:05 81° WSW 04:13:21 18° NNW
Cosmos 1486 Rocket 4.0 04:04:29 10° SSW 04:09:48 81° ESE 04:15:06 10° NNE
Cosmos 2082 Rocket 4.2 04:15:38 12° SW 04:15:38 12° SW 04:16:12 10° SW
Cosmos 1241 Rocket 4.3 04:10:32 35° NW 04:13:16 71° WSW 04:19:25 10° SSE
CENTAUR R/B 3.0 04:16:08 35° WNW 04:16:58 37° NW 04:23:26 10° NNE
Cosmos 2297 4.3 04:21:06 33° NW 04:21:06 33° NW 04:26:03 10° N
Iridium 2 3.5 04:21:29 10° S 04:25:15 74° W 04:29:03 10° N
SJ 16-02 4.0 04:23:57 10° SSE 04:27:16 21° E 04:30:35 10° NE
NOSS 3-2 (A) 4.4 04:27:50 25° NW 04:28:18 25° NW 04:33:36 10° NNE
SKYMED 2 3.5 04:29:28 10° S 04:33:45 64° W 04:37:12 16° NNW
NOSS 3-2 (C) 3.9 04:33:35 29° W 04:35:27 35° NW 04:41:19 10° NNE
Envisat 3.1 04:31:58 10° N 04:36:54 53° WNW 04:41:48 10° SSW
DELTA 2 R/B (1) 3.9 04:33:01 19° WSW 04:36:58 61° SSE 04:42:26 10° E
Meteor 2-6 Rocket 4.1 04:32:44 10° N 04:38:11 87° E 04:43:34 10° S
Cosmos 2098 Rocket 3.0 04:36:43 10° SSW 04:40:19 51° WNW 04:44:50 10° N
Meteor 2-3 Rocket 4.4 04:36:14 10° SW 04:41:06 29° WNW 04:46:05 10° N
Landsat 5 3.6 04:38:53 10° S 04:43:22 67° WSW 04:47:51 10° NNW
ATLAS 3B R/B 4.3 04:38:23 10° S 04:44:11 36° ESE 04:50:12 10° NE
Cosmos 968 Rocket 4.2 04:42:38 22° WSW 04:44:49 29° WNW 04:49:19 10° N
BREEZE-M DEB (TANK) 4.3 04:31:15 17° WNW 04:45:31 65° SW 04:50:45 10° SE
CZ-4B R/B 4.4 04:45:09 10° N 04:49:23 44° WNW 04:53:36 10° SW
Genesis I 3.9 04:49:24 26° WNW 04:50:59 36° WSW 04:54:42 10° S
Okean 3 Rocket 3.7 04:47:27 10° SSW 04:51:54 56° W 04:56:23 10° N
Cosmos 921 Rocket 3.6 04:50:35 20° NW 04:53:04 37° W 04:57:11 10° SSW
H-2A R/B 3.1 04:50:01 10° SE 04:54:03 45° ENE 04:58:12 10° N
ATLAS 5 CENTAUR R/B 3.0 04:50:46 10° S 04:54:11 35° ESE 04:57:53 10° NE
Meteor 1-10 Rocket 4.2 04:48:36 10° N 04:54:11 86° E 04:59:44 10° S
DNEPR-1 R/B 4.0 04:53:14 13° NNW 04:57:40 88° NE 05:03:35 10° SSE
Cosmos 1833 4.3 04:52:06 10° NNW 04:57:49 86° ENE 05:03:33 10° SSE
Cosmos 1812 3.5 04:56:57 17° NW 04:59:13 31° W 05:02:37 10° SSW
ADEOS 3.5 04:55:16 10° N 05:00:27 65° WNW 05:05:36 10° SSW
SJ-7 4.4 04:57:37 10° N 05:01:49 69° WNW 05:05:55 10° SSW
Cosmos 1354 Rocket 3.9 04:57:00 10° SSW 05:02:14 72° WNW 05:07:34 10° NNE
Cosmos 1766 Rocket 4.1 05:01:14 10° SW 05:05:11 34° WNW 05:09:09 10° N
Cosmos 1151 Rocket 3.7 05:02:09 10° NNW 05:06:07 34° W 05:10:03 10° SSW
USA 215 3.3 05:00:04 10° SE 05:06:36 78° SW 05:13:03 10° NW
CZ-2C R/B 2.9 05:03:36 10° N 05:08:29 81° WNW 05:13:34 10° SSW
Meteor PRIRODA 3.6 05:10:11 10° N 05:13:44 57° WNW 05:17:17 10° SSW
Meteor 1-31 Rocket 4.0 05:12:11 10° NNW 05:15:07 21° WNW 05:18:04 10° WSW
IRAS Rocket 4.2 05:09:55 10° S 05:15:24 67° WSW 05:20:53 10° NNW
Cosmos 2279 Rocket 4.3 05:11:02 10° NNW 05:16:48 43° W 05:22:34 10° SSW
BREEZE-M DEB (TANK) 3.4 05:05:10 10° WSW 05:18:18 76° NNW 05:21:51 10° NE
Cosmos 1328 Rocket 4.1 05:14:48 10° NNW 05:18:48 35° W 05:22:45 10° SSW
Cosmos 2369 Rocket 3.1 05:16:08 10° WSW 05:20:42 25° NW 05:25:17 10° N
Cosmos 1862 4.5 05:18:33 10° SW 05:21:36 21° WNW 05:24:40 10° NNW
COSMO-SKYMED 1 4.0 05:18:59 10° SW 05:22:03 19° W 05:25:09 10° NW
FengYun 1-2 T 4.3 05:18:18 10° NNE 05:23:48 90° ESE 05:29:17 10° SSW
SMAP 3.2 05:19:34 10° NNE 05:24:15 82° E 05:28:54 10° S
Nadezhda 4 Rocket 4.0 05:18:15 10° SSW 05:24:22 69° W 05:30:35 10° N
CZ-2D R/B 3.9 05:29:56 10° NNE 05:33:42 60° E 05:37:25 10° S
H-2A R/B 3.0 05:30:47 10° NNE 05:35:34 50° E 05:40:20 10° S
Cosmos 2228 Rocket 3.6 05:32:36 10° N 05:37:05 65° E 05:41:34 10° SSE
CZ-4B R/B 1.6 05:34:34 10° SSE 05:37:53 73° ENE 05:41:11 10° N
CZ-4B R/B 3.3 05:34:49 10° N 05:38:00 31° WNW 05:41:11 10° SW
Cosmos 1092 Rocket 4.1 05:32:21 10° S 05:38:35 89° E 05:44:56 10° N
Cosmos 1408 Rocket 4.3 05:36:47 10° SW 05:40:35 30° WNW 05:44:25 10° NNW
